www.pogodaiklimat.ru

Погода и климат >> Архив погоды >> Аргентина >> Marcos Juarez


ПОГОДА в Marcos Juarez

  • Прогноз погоды в Marcos Juarez
  • Монитор погоды в Marcos Juarez
  • Климат города

АРХИВ ПОГОДЫ в Marcos Juarez

Время (UTC), дата Ветер
(напр.,м/с)
 
Видим.   Явления Облачность Т
(С)
Тd
(С)
f
(%)
Тe
(С)
Тes
(С)
Комфортность P
(гПа)
Po
(гПа)
Тmin
(С)
Tmax
(С)
R
(мм)
R24
(мм)
S
(см)
03 14.11 З 6 20 км ясно +16.1 +11.9 76 +15 +15 1008.0 994.6
06 14.11 З 3 20 км ясно +12.8 +9.9 83 +11 +11 1008.3 994.9
09 14.11 З 5 20 км ясно +12.9 +10.0 83 +11 +11 1007.8 994.5
12 14.11 ЮЗ 11 20 км ясно +19.9 +8.3 47 +20 +20 1008.7 995.4 +12.3 +19.9
15 14.11 ЮЗ 12 20 км ясно +24.6 +5.9 30 +24 +24 комфорт 1008.4 995.0
18 14.11 З 11 20 км 1/0
[Cs]
+27.1 +5.8 26 +26 +27 жарко 1007.7 994.4
21 14.11 З 7 20 км ясно +27.2 +6.6 27 +27 +28 жарко 1006.7 993.4
00 15.11 СЗ 2 20 км ясно +21.0 +10.3 50 +23 +23 комфорт 1007.4 994.2 +19.9 +27.9
03 15.11 СЗ 3 20 км ясно +16.7 +11.2 70 +16 +16 1008.1 994.9
06 15.11 З 3 20 км ясно +15.4 +11.9 80 +15 +15 1006.9 993.7
09 15.11 С 2 20 км ясно +11.5 +10.1 91 +10 +10 1007.0 993.7
12 15.11 С 3 20 км ясно +21.9 +15.5 67 +26 +31 душно 1007.4 994.2 +11.5 +21.9
15 15.11 С 7 20 км ясно +28.8 +15.2 44 +32 +38 душно 1006.8 993.7
18 15.11 С 7 20 км ясно +30.8 +14.2 36 +32 +37 жарко 1005.0 991.8
21 15.11 С 5 20 км ясно +30.9 +13.9 36 +33 +35 душно 1005.2 992.0
00 16.11 ЮВ 7 20 км зарница 4/3 750 м
[Cb cap Ac As]
+22.9 +14.9 61 +27 +27 душно 1009.4 996.1 +19.6 +31.0
03 16.11 ЮВ 6 20 км ясно +18.6 +11.6 64 +19 +19 1013.7 1000.5
06 16.11 В 8 20 км 4/0
[Ac As]
+17.7 +12.7 73 +17 +17 1014.4 1001.2
09 16.11 В 6 20 км 5/0
[Ac As]
+15.7 +11.5 76 +14 +14 1014.9 1001.7
12 16.11 ЮВ 7 20 км 6/3 900 м
[Cu hum Ac trans]
+19.2 +12.9 67 +20 +21 1016.5 1003.2 +15.5 +22.9
15 16.11 В 4 20 км 9/5 900 м
[Sc Ac As]
+21.4 +15.4 69 +25 +28 комфорт 1015.3 1001.8
18 16.11 В 7 20 км 8/1 900 м
[Cu hum Ac As]
+26.4 +17.6 58 +31 +32 душно 1010.8 997.6
21 16.11 СВ 10 20 км 4/0
[Ac As Cs]
+27.2 +17.1 54 +31 +31 душно 1007.3 994.1
00 17.11 СВ 6 20 км ясно +20.4 +17.5 83 +24 +24 комфорт 1007.4 994.1 +18.8 +28.2
03 17.11 В 3 20 км ясно +19.4 +17.6 89 +22 +22 комфорт 1007.8 994.6
06 17.11 СВ 5 20 км ясно +19.4 +18.0 92 +21 +21 комфорт 1004.5 991.4
09 17.11 СВ 6 20 км ясно +18.2 +16.9 92 +18 +18 1002.0 988.9
12 17.11 С 3 20 км 4/1 900 м
[Sc Ac As Cs]
+26.1 +18.5 63 +31 +35 очень
душно
1002.3 989.3 +18.2 +26.1
15 17.11 В 7 20 км 6/4 1000 м
[Sc Ac As Cs]
+26.5 +18.3 61 +31 +34 душно 1004.1 991.0
18 17.11 Ю 9 20 км 6/6 1470 м
[Cu hum Cs]
+27.4 +15.0 47 +30 +31 жарко 1004.7 991.6
21 17.11 Ю 9 20 км 4/3 1470 м
[Cu hum Cs]
+25.4 +12.2 44 +27 +27 жарко 1006.0 992.8
00 18.11 Ю 7 20 км 4/1 750 м
[Sc Ac As]
+19.7 +11.0 57 +20 +20 1011.0 997.8 +19.7 +29.4
03 18.11 З 3 20 км 5/0
[Ac As]
+16.9 +11.4 70 +17 +17 1014.2 1000.9
06 18.11 ЮЗ 5 20 км ясно +13.8 +7.3 65 +12 +12 1014.3 1001.0
09 18.11 ЮЗ 5 20 км ясно +10.7 +7.2 79 +8 +8 1014.9 1001.4
12 18.11 Ю 4 20 км ясно +18.9 +7.4 47 +19 +24 1017.1 1003.7 +10.5 +19.7
15 18.11 Ю 5 20 км ясно +23.1 +4.2 29 +23 +33 комфорт 1017.4 1004.0
18 18.11 Ю 2 20 км ясно +25.6 +3.3 24 +25 +42 комфорт 1015.0 1001.6
21 18.11 В 1 20 км ясно +25.9 +5.2 26 +25 +30 комфорт 1014.0 1000.6
00 19.11 С 2 20 км ясно +16.1 +7.8 58 +16 +16 1015.1 1001.6 +16.1 +26.4
03 19.11 С 4 20 км ясно +13.1 +8.3 73 +12 +12 1016.2 1002.6
06 19.11 С 3 20 км ясно +12.8 +7.8 72 +12 +12 1014.7 1001.3
09 19.11 С 3 20 км ясно +10.0 +7.5 84 +8 +8 1013.8 1000.4
12 19.11 С 5 20 км ясно +21.3 +6.8 39 +22 +26 комфорт 1014.9 1001.4 +9.8 +21.3
15 19.11 С 5 20 км ясно +26.4 +12.6 42 +28 +38 жарко 1013.5 1000.1
18 19.11 С 8 20 км ясно +28.4 +10.4 33 +29 +32 жарко 1010.4 997.0
21 19.11 С 9 20 км ясно +28.0 +8.8 30 +28 +28 жарко 1008.8 995.4
00 20.11 СВ 6 20 км ясно +20.4 +10.4 53 +22 +22 комфорт 1010.3 997.0 +20.4 +28.6
03 20.11 С 7 20 км ясно +18.2 +11.1 63 +18 +18 1011.3 998.1
06 20.11 С 4 20 км ясно +15.5 +10.6 73 +15 +15 1010.6 997.4
09 20.11 С 3 20 км ясно +12.8 +10.5 86 +11 +11 1011.1 997.8
12 20.11 С 5 20 км ясно +23.0 +12.0 50 +26 +29 жарко 1012.7 999.4 +12.0 +23.0
15 20.11 С 6 20 км ясно +28.8 +15.7 45 +32 +40 душно 1011.5 998.2
18 20.11 С 7 20 км ясно +31.6 +14.3 35 +33 +39 жарко 1008.5 995.4
21 20.11 СВ 8 20 км ясно +31.3 +21.2 55 +39 +40 очень
душно
1006.7 993.4

 

Местоположение метеостанции Marcos Juarez (Аргентина): широта -32.70 долгота -62.15 высота над уровнем моря 114 м.

В архиве по умолчанию представлена погода в Marcos Juarez за последнюю неделю. Архивные данные за месяц целиком и за предыдущие месяцы, начиная с января 2011 года, Вы можете получить, выбрав интересующий диапазон дат из раскрывающегося списка и нажав кнопку "Ввод!".


*Определитесь, кто Вы:
робот инопланетянин человек

Внимание! Время в таблицах - всемирное. Для получения местного времени необходимо прибавить поправку, которая в Marcos Juarez равна -3 ч.

Смотрите также архив погоды в соседних городах и на ближайших метеорологических станциях:

Погода в Rosario (Аргентина) (130 км)
Погода в Santa Fe (Аргентина) (168 км)
Погода в Parana (Аргентина) (187 км)
Погода в Laboulaye (Аргентина) (195 км)
Погода в Pilar (Аргентина) (200 км)
Погода в Rio Cuarto (Аргентина) (203 км)
Погода в Junin (Аргентина) (236 км)
Погода в Cordoba (Аргентина) (248 км)
Погода в Villa Dolores (Аргентина) (292 км)
Погода в Ceres (Аргентина) (314 км)

Пояснения к столбцам:

Ветер - указаны скорость ветра в м/с - средняя за 10 мин, порывы в срок и между сроками (в фигурных скобках) и направление, откуда дует ветер: С - северный, СВ - северо-восточный, В - восточный, ЮВ - юго-восточный, Ю - южный, ЮЗ - юго-западный, З - западный, СЗ - северо-западный.
Видимость - горизонтальная дальность видимости в метрах или километрах. При видимости от 1 до 10 км при отсутствии осадков обычно наблюдается дымка, при ухудшении видимости до 1 км и менее - туман. В сухую погоду видимость может ухудшаться дымом, пылью или мглою.
Явления - указаны атмосферные явления, наблюдавшиеся в срок или в последний час перед сроком; фигурными скобками обозначены явления, наблюдавшиеся между сроками (за 1-3 часа до срока); квадратными скобками обозначены град или гололедные отложения с указанием их диаметра в мм.
Облачность - указаны через наклонную черту общая и нижняя облачность в баллах и высота нижней границы облаков в метрах; квадратными скобками обозначены формы облаков: Ci - перистые, Cs - перисто-слоистые, Cc - перисто-кучевые, Ac - высококучевые, As - высокослоистые, Sc - слоисто-кучевые, Ns - слоисто-дождевые, Cu - кучевые, Cb - кучево-дождевые. Подробнее классификацию облаков см. в Атласе облаков (PDF).
T - Температура воздуха - температура, измеренная на высоте 2 м над землей.
Td - Температура точки росы - температура, при понижении до которой содержащийся в воздухе водяной пар достигнет насыщения.
f - Относительная влажность воздуха - влажноcть воздуха, измеренная на высоте 2 м над землей.
Te - Эффективная температура - температура, которую ощущает одетый по сезону человек в тени. Характеристика душности погоды. При расчете учитывается влияние влажности воздуха и скорости ветра на теплоощущения человека.
Tes - Эффективная температура на солнце - температура, которую ощущает человек, с поправкой на солнечный нагрев. Характеристика знойности погоды. Зависит от высоты солнца над горизонтом, облачности и скорости ветра. Ночью, в пасмурную погоду, а также при ветре 12 м/с и более поправка равна нулю.
P - Атмосферное давление - приведенное к уровню моря атмосферное давление.
Po - Атмосферное давление - измеренное на уровне метеостанции атмосферное давление.
Tmin - Минимальная температура - минимум температуры воздуха на высоте 2 м над землей.
Tmax - Максимальная температура - максимум температуры воздуха на высоте 2 м над землей.
R - Количество осадков - Количество выпавших осадков за период времени, мм. При наведении курсора мыши на число - период времени, за который выпало указанное количество осадков.
R24 - Количество осадков - Количество выпавших осадков за 24 часа, мм.
S - Снежный покров - Высота снежного покрова, см. При наведении курсора мыши на число - состояние снежного покрова и степень покрытия местности в баллах.